Lid_Strength_Index
-0 0 2 5 10 11 13 11 12 11 10 9 9 9 10 9 9 11 4 1 0 0 -0 -0 -1 -1 -1 -1 -1 -1 -1 -1 -2 -2 -2 -2 -2 -2 -1 -1 -1 -1 -1 -1 -1 -1 -1 -1 -1
0 1 5 8 12 15 14 11 10 10 9 9 8 9 9 9 6 5 4 1 0 0 -0 -0 -1 -1 -1 -1 -1 -1 -1 -1 -1 -2 -2 -2 -1 -2 -1 -1 -1 -1 -1 -1 -1 -1 -1 -1 -1
0 1 7 10 13 14 14 11 9 8 8 8 8 8 8 7 5 4 3 1 0 0 -0 -0 -1 -1 -1 -1 -1 -1 -1 -1 -1 -2 -2 -1 -1 -2 -2 -1 -1 -1 -1 -1 -1 -1 -1 -1 -1
3 5 8 11 13 11 11 10 9 8 7 7 8 8 6 5 4 3 2 0 1 0 0 -0 -1 -1 -1 -1 -1 -1 -1 -1 -1 -2 -1 -1 -1 -1 -2 -1 -1 -1 -1 -1 -1 -1 -1 -1 -1
6 8 11 13 12 10 10 9 9 9 9 8 8 9 7 5 4 3 3 1 1 1 0 -0 -1 -1 -1 -1 -1 -1 -1 -1 -1 -1 -1 -1 -1 -1 -2 -1 -1 -1 -1 -1 -1 -1 -1 -1 -1
7 8 13 14 12 10 9 8 10 9 9 8 8 8 7 5 3 3 2 2 0 1 -0 -0 -0 -1 -1 -1 -1 -1 -1 -1 -1 -1 -1 -1 -1 -1 -1 -1 -1 -1 -1 -1 -1 -1 -1 -1 -1
9 10 13 13 12 10 9 7 11 10 9 8 7 9 7 5 3 3 3 1 0 0 0 0 -0 -0 -0 -1 -1 -1 -1 -1 -2 -2 -1 -1 -2 -1 -1 -1 -1 -1 -1 -1 -1 -1 -1 -1 -1
7 9 13 12 12 12 8 8 9 9 9 6 6 9 8 5 4 3 3 2 2 1 0 0 0 0 0 -0 -1 -1 -1 -1 -2 -2 -1 -1 -1 -1 -2 -1 -2 -1 -1 -1 -1 -1 -1 -1 -1
6 12 14 12 11 10 7 8 7 7 8 6 6 7 6 4 3 4 4 4 3 2 1 0 0 0 -0 -0 -0 -1 -1 -1 -1 -1 -1 -0 0 0 -0 -0 -1 -1 -1 -1 -1 -1 -1 -2 -1
9 13 12 9 8 9 7 8 7 7 8 8 7 5 4 4 5 4 4 4 4 4 2 1 0 0 0 -0 0 0 -0 0 0 0 0 0 1 1 1 0 -1 -2 -2 -2 -1 -1 -2 -1 0
9 12 9 8 7 6 7 8 7 8 9 7 7 6 6 5 5 4 4 4 4 3 2 2 1 0 0 0 0 0 0 1 1 1 1 1 1 1 1 2 1 1 0 1 1 1 1 1 1
11 8 8 8 6 7 8 7 8 8 7 6 5 6 6 6 6 5 6 5 5 4 3 2 1 1 1 1 1 1 1 1 2 1 1 2 2 3 3 3 2 2 2 2 3 3 2 2 1
10 9 7 7 7 7 6 8 7 7 6 6 5 5 6 6 6 5 5 5 5 3 3 3 2 2 2 1 1 2 2 2 2 2 2 3 3 3 3 3 3 3 3 2 2 1 1 2 2
8 8 8 7 7 7 8 8 8 7 6 6 6 6 6 5 5 6 6 5 5 3 3 3 3 2 2 1 2 2 2 2 2 1 1 1 2 2 2 2 2 1 1 2 4 5 5 5 5
8 10 9 8 8 8 7 10 10 7 6 7 6 6 6 5 6 6 6 5 5 5 4 3 3 3 3 2 2 3 1 1 1 1 1 1 1 2 4 6 5 5 6 6 6 6 7 8 7
11 11 15 10 8 8 8 14 8 7 8 7 7 7 7 7 6 6 5 5 5 6 5 5 5 4 4 3 3 2 1 2 4 6 6 5 5 5 6 7 6 6 7 8 8 9 9 9 9
13 16 15 12 8 9 10 12 8 6 8 8 8 8 7 8 7 6 5 5 5 4 5 5 5 6 3 4 4 6 6 6 7 7 7 7 7 7 7 8 9 9 10 10 10 10 10 10 11
15 16 14 14 11 9 11 11 9 7 8 8 7 7 8 8 7 6 5 5 4 3 3 4 5 3 5 6 7 8 8 8 8 8 9 10 9 9 10 11 11 10 11 11 11 11 11 11 12
13 14 15 13 9 11 11 11 9 8 8 9 8 8 9 9 7 6 5 4 3 3 3 2 2 3 5 7 8 10 11 10 10 10 10 10 10 11 11 11 12 11 12 13 12 12 12 12 12
12 14 14 12 10 10 12 12 9 8 7 7 7 8 9 9 8 6 5 5 4 4 4 4 3 5 6 7 9 10 11 11 11 12 11 11 12 12 12 12 12 12 12 13 13 13 13 13 13
14 14 14 14 11 10 11 13 11 9 7 7 6 6 9 8 7 7 6 6 6 6 6 6 6 7 7 8 9 10 10 11 11 11 12 13 13 12 12 13 13 13 13 13 14 14 14 14 13
15 11 11 12 13 17 12 19 13 11 10 8 7 9 8 8 7 7 6 7 7 8 7 7 7 8 8 8 9 10 10 10 11 11 12 13 13 13 13 12 13 13 13 15 14 13 14 14 14
13 10 11 11 13 14 14 17 14 11 11 10 8 8 8 8 7 7 6 7 8 8 8 8 8 8 8 8 8 9 10 11 12 12 13 13 14 13 13 13 13 14 14 15 15 14 15 14 14
9 11 11 12 13 19 15 16 16 13 11 10 8 9 9 8 8 7 7 7 10 10 10 9 9 10 9 8 9 10 11 13 13 14 14 14 14 13 13 13 15 15 15 15 15 15 15 15 15
10 13 19 20 20 20 14 16 14 11 9 9 8 9 9 8 8 7 8 8 9 10 10 10 10 10 10 10 11 12 13 14 14 14 14 14 14 14 15 15 16 16 15 15 15 15 15 15 16
13 13 18 23 22 19 14 18 15 9 8 8 9 9 9 8 8 7 8 9 9 9 10 10 10 11 12 12 13 14 14 14 14 14 14 15 14 15 16 16 16 15 15 16 16 15 15 16 17
13 16 11 16 16 19 17 15 11 9 10 11 10 9 9 8 7 8 8 9 9 10 11 11 11 12 13 13 13 14 14 14 15 15 15 15 15 15 16 16 16 16 16 16 16 16 17 17 17
11 10 16 16 23 23 19 17 14 12 12 12 11 10 9 8 8 8 8 9 9 11 12 12 12 12 13 14 14 14 15 15 15 15 15 16 16 16 16 16 17 16 16 16 16 17 17 17 17
13 14 13 13 16 21 22 18 11 10 11 11 11 10 9 8 8 8 8 9 10 11 12 12 13 13 14 14 15 15 15 15 15 16 16 16 16 17 17 17 16 16 16 16 17 17 16 16 16
11 13 13 17 17 15 18 17 11 11 10 9 10 9 8 8 7 7 8 9 11 12 12 13 13 14 15 15 15 15 15 16 16 16 17 16 17 17 17 17 16 16 16 16 17 17 16 16 16